COSMOS 1086

导读

COSMOS 1086(宇宙1086号)是独联体(CIS,继承自苏联航天体系)于1979年3月15日08:00发射的人造卫星,属于苏联“宇宙”系列卫星阵营。该系列卫星承担科学探测、技术试验等多样航天任务,此卫星入轨后开展空间环境相关观测,服务于当时空间物理研究,为苏联航天技术验证与空间科学积累提供了宝贵数据,是冷战时期苏联航天探索的重要组成单元。

Basic Information
目录编号:
11301
目录名称:
COSMOS 1086
国际标识:
1979-024F
轨道中心:
EARTH
卫星名称:
COSMOS 1086
卫星全名:
--
卫星状态:
在轨 (已飞行17261 天)
发射日期:
1979-03-15 UTC
国别 :
俄罗斯(独联体) (CIS)
星等 :
--
Orbit Information
数据来源 国际轨道数据 AOE轨道数据
星历时间 2026-06-17T18:53:46+0800
5小时前
查看轨道信息
2026-06-17T00:00:00+0800
1天前
查看轨道信息
半长轴 7851.497km 7851.497km
偏心率 0.0010578 0.0010516
轨道倾角 74.035° 74.034°
近地点辐角 350.986° 351.332°
升交点赤经 68.195° 69.238°
平近点角 120.986° 184.788°
近地点 1465.054km 1465.103km
远地点 1481.666km 1481.617km
周期 115.395分钟 115.395分钟
每日圈数 12.478837 12.478837
Detailed Information
使用方式:
暂无
2D Orbit Map
3D Orbit Map
Orbit Altitude Analysis Chart
Orbit Inclination Analysis Chart
Orbit Comprehensive Analysis Chart
View Comprehensive Chart